H-2A DEB, 43675

Orbit data source: Space-Track

H-2A DEB, 43675 is space debris in SSO originally from a launch on Mon, 29 Oct 2018 UTC launched from the Tanegashima Space Center (TNSTA). Debris objects in space refer to the collection of defunct objects orbiting the Earth. Examples of debris include non-operational satellites, rocket bodies, and fragments generated from explosions, collisions, or faulty payload assembly.

Loading next visibility...
Identifier
43675, 2018-084E
Orbit
SSO
Country
Flag of JPJP / JPN
Related business
Manufacturer
Kawasaki
Mission
Spacecraft
Bus & Motor
Unknown
Mass
~100 kg wet, ~100 kg dry
Launch date (UTC)
2018-10-29 (7 years ago)
Launch vehicle
Unknown
Launch site
Tanegashima Space Center (TNSTA)
Object type
Payload
Rocket body
Debris
Shape & HBR
Cone, 2.0 m
Radar Cross Section
6.654 m², Large (>1 m²)

Expand to show TLE details & history
Last TLE update: 8 hours ago

TLE from 8 hours ago
0 H-2A DEB
1 43675U 18084E   25286.94101572  .00069617  00000-0  16339-2 0  9991
2 43675  98.0403 119.6363 0005411  92.9202 267.2663 15.41780988380234
Epoch: 2025-10-13T22:35Z
TLE epoch observation values (Epoch: 2025-10-13T22:35:03.758Z)
Latitude
0.00006°
Longitude
118.13405°
Altitude
444.132 km
Speed
7.646 km/s
True Right ascension
07h 58m 32s
True Declination
0° 00' 00"
Sunlit
Object was in daylight at epoch
Visualization orbit readout
Latitude
Unknown
Longitude
Unknown
Altitude
Unknown
Speed
Unknown
Apparent Right ascension
Unknown
Apparent Declination
Unknown
Sunlit
N/A
Visualization observer readout
Local Sidereal Time
01:31:28
Azimuth
Unknown
Elevation
Unknown
Doppler factor
Unknown
Orbital elements
Apogee altitude
441.506 km
Perigee altitude
434.13 km
Semi-major axis
6,815.955 km
Eccentricity
0.00054
Inclination
98.0403°
RAAN
119.6363°
Arg. of periapsis
92.9202°
True anomaly
267.20437°
Mean anomaly
267.2663°
Eccentric anomaly
267.23533°
Mean motion
3.85703 °/min
Orbital period
93.34 mins
BSTAR
0.0016339
Loading maneuver chart data...
Computing Atmospheric mass density...
Loading historical data...
Loading historical data...
Loading historical data...
Loading historical data...
Loading historical data...
Loading historical data...
Loading historical data...

Documentation

Showing up to 5 results
|